Lid_Strength_Index
-1 -1 -1 -1 -0 -1 -1 -1 -0 -0 -0 -0 -1 -1 -0 -1 -1 -1 -0 -2 -1 -1 -1 -1 -1 -1 -1 -1 -1 -1 -1 -1 -1 -1 -1 -1 -1 -1 -1 -1 -1 -1 -1
-1 -0 -1 -0 -0 -1 -1 -1 -0 0 0 -1 -0 -1 -0 -0 -1 -1 -1 -2 -2 -1 -1 -1 -1 -1 -1 -1 -1 -1 -1 -1 -1 -1 -1 -1 -2 -1 -1 -1 -1 -1 -1
-1 -1 -0 -0 -1 -2 -1 -1 -1 -1 -0 -0 -0 -0 -0 -0 -0 -1 -1 -1 -1 -1 -1 -1 -1 -1 -1 -1 -1 -1 -1 -1 -1 -1 -1 -1 -1 -1 -1 -1 -1 -0 0
-1 -1 0 -0 -1 -1 -1 -0 0 0 1 -0 -0 -0 -0 -1 -1 -1 -1 -1 -1 -1 -1 -2 -1 -1 -1 -1 -1 -1 -1 -1 -1 -1 -1 -1 -1 -1 -1 -1 -0 0 1
-1 -0 -0 -0 -1 -1 -0 0 0 0 1 0 0 -0 -0 0 -0 -0 -1 -1 -2 -1 -1 -1 -1 -1 -1 -1 -1 -1 -1 -1 -1 -1 -1 -1 -1 -1 -1 -1 0 1 1
-1 -1 -0 -1 -1 -0 -0 0 0 0 0 0 1 1 0 0 0 -0 -0 -1 -1 -1 -2 -1 -1 -1 -1 -1 -1 -1 -1 -1 -1 -1 -1 -1 -1 -1 -1 -0 0 1 1
-1 -1 -0 -0 -0 0 0 0 0 1 1 -0 1 1 1 0 0 0 -0 -0 -1 -1 -1 -1 -1 -2 -1 -1 -1 -1 -2 -2 -2 -1 -1 -1 -1 -1 -1 -0 1 1 1
-1 -0 -1 -0 -0 0 0 0 0 1 1 0 2 2 5 3 1 0 -0 -0 -0 -1 -1 -1 -1 -1 -1 -1 -1 -1 -1 -2 -2 -2 -1 -1 -1 -1 0 0 1 1 1
-1 -1 -0 -0 -0 -0 1 0 0 1 2 1 1 2 4 5 3 1 1 0 -0 -0 -1 -1 -1 -1 -1 -1 -1 -1 -1 -1 -2 -2 -1 -1 -1 -0 1 1 1 1 1
-0 -1 -0 -0 -0 -0 -0 0 -0 0 1 2 1 1 1 2 4 5 2 1 -0 0 -0 -1 -1 -1 -1 -1 -1 -1 -1 -1 -2 -2 -1 -1 -0 0 1 1 1 1 1
-0 -0 -1 -0 -0 -1 -0 -0 0 1 1 1 2 2 1 2 1 4 5 3 1 0 -0 -0 -0 -0 -1 -1 -1 -1 -0 -1 -1 -1 -0 -0 0 2 2 1 1 1 0
-0 -0 -0 -1 -1 -0 -0 0 -0 0 0 0 1 1 2 2 3 3 4 3 3 2 0 -0 0 0 -1 -1 -1 -0 0 0 1 1 1 1 1 1 1 0 0 0 -0
1 -0 -0 -0 -0 -0 -0 -1 0 -0 0 1 0 1 1 1 1 1 2 3 4 3 2 -0 0 -0 -0 -0 -0 -0 0 2 2 2 2 2 1 0 0 -0 -0 -0 -0
-0 -1 -0 -1 -1 -0 -1 -1 -1 -0 -0 -0 0 0 0 1 -0 1 2 3 5 4 2 2 -0 -0 -1 -1 -1 0 1 2 2 3 3 2 1 1 0 -0 -1 -1 -1
0 -0 -1 -0 -0 -0 -0 -0 0 0 0 -0 0 0 1 0 0 -0 0 1 3 6 5 3 3 -0 -0 -0 1 1 1 2 2 3 4 3 2 2 1 1 0 1 1
-0 -0 -0 -0 -0 -0 -0 -0 -0 -0 0 1 0 1 1 0 0 0 1 0 1 2 5 2 2 1 0 1 1 1 1 2 3 4 3 3 3 3 2 1 1 1 1
-0 0 -0 0 0 0 -0 0 -0 0 1 1 1 1 1 1 0 1 1 1 1 1 4 2 1 1 2 2 2 2 1 1 2 3 3 3 3 3 2 2 2 2 1
-0 -0 0 0 0 0 -0 0 1 0 1 1 1 1 1 1 1 1 1 1 2 1 3 4 2 2 2 2 2 2 2 1 2 3 4 4 3 3 3 3 3 2 2
-0 -0 0 0 1 0 0 0 0 1 1 1 1 1 1 1 1 2 1 2 1 1 2 3 4 3 3 2 3 2 2 2 2 3 4 4 4 4 4 3 4 4 5
0 0 0 0 0 0 0 0 1 1 1 1 0 1 1 1 2 1 2 2 2 2 2 3 4 4 3 3 3 4 4 3 3 2 4 4 4 4 4 4 4 5 6
0 0 0 0 0 0 1 1 1 1 1 1 0 1 0 1 3 2 1 1 2 3 3 4 4 4 4 4 4 4 4 3 3 2 3 4 2 3 3 4 5 6 7
0 1 1 1 1 0 6 5 2 1 1 1 1 1 0 1 3 6 4 4 2 2 3 4 4 4 4 3 3 3 4 3 4 1 1 1 -0 2 2 5 7 7 7
1 1 1 1 1 0 6 6 5 0 1 1 1 1 1 0 1 1 6 6 6 6 4 2 3 3 3 3 3 4 4 2 2 0 0 2 1 3 5 7 7 8 8
1 2 1 1 1 1 7 7 6 0 0 0 0 1 1 1 1 1 1 2 2 2 2 1 2 2 2 2 3 3 2 0 1 -0 -1 2 1 4 4 6 8 8 8
1 1 1 2 1 1 8 9 6 0 1 1 1 0 0 1 8 7 2 3 3 3 7 7 7 7 8 7 3 1 2 2 3 2 -0 1 1 3 4 6 8 8 9
1 1 1 1 4 1 9 10 6 1 1 2 1 2 8 4 9 7 1 3 3 3 2 2 2 5 4 4 6 -1 0 2 2 3 0 1 1 2 4 4 6 8 8